Date,TemperatureHighF,TemperatureAvgF,TemperatureLowF,DewpointHighF,DewpointAvgF,DewpointLowF,HumidityHigh,HumidityAvg,HumidityLow,PressureMaxIn,PressureMinIn,WindSpeedMaxMPH,WindSpeedAvgMPH,GustSpeedMaxMPH,PrecipitationSumIn
2013-2-1,41.1,33.0,25.3,30.5,14.1,1.6,85,48,23,30.33,30.01,37,6,37,0.00
2013-2-2,41.6,29.8,20.0,33.7,22.1,4.0,95,76,23,30.32,30.08,18,1,18,0.03
2013-2-3,49.7,39.0,29.3,36.1,30.8,27.1,95,75,43,30.08,29.93,25,5,25,0.24
2013-2-4,48.3,38.0,27.5,32.6,26.8,22.9,88,66,39,30.10,29.97,21,2,21,0.00
2013-2-5,58.4,44.5,32.2,46.6,39.0,29.0,94,82,56,29.98,29.90,23,3,23,0.00
2013-2-6,65.7,48.7,35.7,42.6,33.5,26.4,95,63,25,30.11,29.98,16,2,16,0.00
2013-2-7,50.9,47.7,40.0,46.6,38.3,29.2,94,72,46,30.11,29.88,13,2,13,0.16
2013-2-8,54.7,46.9,35.8,47.3,41.2,31.0,96,82,49,30.09,29.85,23,3,23,0.01
2013-2-9,61.1,42.9,27.3,34.1,26.4,17.1,93,60,19,30.25,30.05,14,2,14,0.01
2013-2-10,53.7,47.0,42.0,45.8,35.0,26.1,94,65,36,30.29,30.07,19,3,19,1.02
2013-2-11,56.2,50.4,45.2,53.7,48.0,42.2,97,92,75,30.08,29.95,15,1,15,0.46
2013-2-12,56.7,47.4,41.4,45.2,37.9,24.8,93,73,31,30.04,29.81,13,2,13,0.26
2013-2-13,48.7,42.9,37.0,44.9,39.3,31.7,95,87,72,29.88,29.68,24,3,24,0.03
2013-2-14,56.7,41.7,30.3,35.1,31.8,28.3,94,70,38,30.02,29.87,20,2,20,0.00
2013-2-15,57.9,42.9,29.3,40.7,33.0,27.7,96,72,37,30.06,29.92,26,3,26,0.00
2013-2-16,40.7,34.5,28.1,32.7,21.8,12.0,80,61,37,30.06,29.88,33,6,33,0.00
2013-2-17,42.0,31.6,25.1,19.9,11.4,4.5,75,44,26,30.24,30.06,32,6,32,0.00
2013-2-18,55.1,39.2,22.7,28.8,23.5,18.0,87,57,33,30.34,30.13,15,3,21,0.00
2013-2-19,52.9,42.9,34.6,43.1,29.4,14.6,94,63,31,30.13,29.91,29,4,29,0.25
2013-2-20,52.1,39.9,28.5,18.3,8.6,-9.2,64,31,8,30.09,30.02,30,4,30,0.00
2013-2-21,60.9,44.2,28.7,39.6,22.6,12.3,86,47,19,30.15,29.93,14,2,14,0.35
2013-2-22,43.2,40.6,38.5,40.3,38.7,36.1,97,93,86,30.14,30.00,16,3,17,0.99
2013-2-23,49.2,45.4,41.1,47.4,43.9,39.8,100,95,91,30.02,29.78,12,1,12,0.56
2013-2-24,62.5,49.1,37.9,45.1,32.6,22.6,96,59,22,29.95,29.82,21,3,21,0.00
2013-2-25,51.3,43.1,35.3,36.5,29.7,24.0,92,61,43,30.01,29.83,21,4,21,0.03
2013-2-26,43.3,40.2,36.8,41.7,38.0,34.9,95,92,77,29.84,29.53,32,5,32,1.28
2013-2-27,53.5,44.9,38.6,37.8,34.5,32.2,86,68,46,29.82,29.69,20,6,27,0.00
2013-2-28,44.9,38.5,34.8,35.0,28.1,25.1,71,66,59,29.92,29.75,26,6,26,0.00